Theta_e
345 348 348 350 351 352 350 351 351 351 350 351 351 350 351 352 353 354 350 350 352 352 351 351 352 351 350 349 349 350 349 350 350 347 349 349 354 353 352 355 355 354 353
347 348 350 351 351 351 352 351 352 352 351 351 351 352 349 347 349 349 351 349 350 351 350 351 350 350 351 349 350 350 350 350 350 351 348 347 352 352 354 355 353 351 351
349 350 350 350 350 349 350 352 352 353 353 351 351 352 352 351 350 347 349 349 349 349 350 350 351 350 350 350 349 349 349 351 350 350 349 350 349 351 351 354 353 353 353
352 352 351 351 350 350 350 351 352 352 353 353 352 352 352 352 351 351 347 350 349 349 349 350 350 351 351 351 350 349 351 348 348 350 348 348 349 349 351 350 350 350 351
354 354 353 353 353 353 352 353 353 353 353 354 353 352 353 352 351 350 351 350 349 350 349 350 350 352 352 351 350 347 348 350 347 349 349 346 346 347 350 352 350 350 355
354 354 353 354 354 354 354 354 355 355 354 353 352 353 354 352 350 348 349 350 351 350 350 350 351 349 348 347 346 344 346 351 350 348 347 346 348 348 350 351 349 350 352
353 353 353 353 353 353 353 353 353 352 353 353 353 353 353 353 350 348 348 347 348 348 349 350 350 347 347 350 351 348 345 345 346 349 350 349 349 351 351 352 351 351 351
355 352 353 353 352 352 352 352 351 354 354 352 353 352 352 350 347 344 342 343 348 349 348 349 350 349 349 349 350 351 350 350 349 348 348 350 350 351 351 352 352 352 350
350 350 349 350 349 349 349 350 351 349 350 351 351 351 350 347 344 341 341 345 346 349 349 349 349 350 350 349 347 347 347 348 348 349 348 348 346 345 347 351 349 350 348
346 345 346 347 347 348 347 346 345 344 345 345 345 345 347 346 346 344 342 342 344 346 346 347 347 348 348 349 348 347 347 347 348 348 347 346 346 345 344 344 348 348 347
345 345 345 345 344 344 346 346 346 346 346 346 342 340 339 338 340 339 339 339 341 342 345 345 346 345 344 342 342 346 349 347 347 348 348 345 341 339 338 340 340 341 344
345 345 344 343 342 342 343 344 345 344 343 342 342 341 339 338 334 334 334 332 334 337 338 340 342 341 341 340 341 341 342 344 346 348 347 344 338 334 332 334 334 334 334
345 344 344 343 343 344 342 343 342 343 342 342 340 340 338 337 336 334 335 335 336 335 337 337 336 335 333 333 332 338 339 341 342 341 336 331 330 329 327 327 328 328 329
345 344 343 342 341 341 341 341 341 341 340 339 338 338 337 338 337 336 334 334 334 333 333 333 333 333 329 331 331 330 330 332 332 330 328 327 325 324 324 325 323 324 325
344 341 339 338 340 337 332 333 335 333 335 338 338 338 337 337 334 331 332 333 333 332 331 330 329 330 328 328 327 328 330 330 329 325 321 320 322 322 323 325 326 327 327
341 339 337 335 335 334 334 330 331 331 332 332 332 332 331 330 330 330 331 330 329 328 327 327 327 326 327 326 326 325 324 324 323 326 323 322 322 322 323 324 325 327 326
340 338 335 333 334 336 336 334 333 328 328 329 330 330 330 329 329 329 328 329 328 328 328 327 327 327 328 327 327 327 326 323 323 323 322 322 322 323 321 321 323 324 323
339 335 334 334 335 335 335 336 335 334 333 331 327 328 328 328 328 328 328 329 330 330 332 332 332 332 331 331 330 328 325 325 324 325 324 323 322 321 321 320 320 320 321
337 333 335 335 336 335 335 335 333 334 335 333 328 327 328 328 327 327 327 332 333 332 333 332 332 331 330 330 329 329 328 327 325 325 325 324 323 322 322 321 321 320 320
334 333 335 335 334 334 334 333 332 334 335 334 333 332 327 326 329 330 331 332 333 332 332 333 331 329 329 328 328 327 327 326 326 326 325 324 324 323 322 321 321 320 319
331 333 334 335 333 332 332 332 332 332 332 332 331 332 330 331 332 333 333 334 331 331 330 329 328 327 326 325 327 327 327 328 327 326 326 323 322 322 321 321 320 319 318
331 332 333 334 333 333 332 331 332 332 331 328 327 324 323 327 330 332 333 332 330 329 328 328 327 326 326 324 323 323 324 325 325 325 324 321 321 321 320 320 319 318 318
330 330 332 334 332 332 332 331 332 330 329 327 326 324 323 324 325 326 327 327 328 326 326 326 326 326 326 326 324 321 321 321 321 320 320 320 320 320 320 319 318 317 317
329 331 333 333 331 330 330 330 330 329 328 327 326 327 327 326 324 324 324 324 324 324 324 324 324 324 325 326 325 323 320 319 320 320 319 319 319 319 319 319 318 317 316
331 331 331 331 330 330 330 330 328 328 325 326 326 326 326 326 326 326 325 324 324 324 324 324 324 325 325 325 325 325 323 319 319 319 320 319 319 319 319 318 317 316 316
330 330 329 328 329 329 329 327 327 326 326 326 326 326 325 325 325 325 325 325 324 323 324 324 324 325 325 325 325 324 324 323 319 317 319 320 320 319 319 318 317 316 316
Wind_Speed
23 23 24 26 25 23 24 23 22 20 20 18 18 18 17 17 18 18 18 16 15 16 14 11 13 14 14 13 11 11 12 12 11 12 6 8 8 8 7 7 7 7 11
22 25 22 22 24 24 24 24 22 22 21 21 19 19 19 19 18 19 20 17 20 18 17 17 17 15 15 14 13 12 10 10 12 13 15 14 8 10 9 9 10 12 10
23 24 25 23 26 27 24 24 24 23 22 22 21 22 21 20 21 19 19 19 19 19 19 17 18 17 16 15 13 12 13 11 13 14 14 12 13 11 11 11 11 11 9
20 21 23 25 26 26 26 24 23 25 23 23 23 24 24 24 22 20 22 21 20 20 20 19 18 20 18 16 16 15 13 12 12 15 16 14 14 14 13 14 13 12 9
19 20 21 22 21 23 23 23 23 23 24 23 23 25 24 23 24 22 20 22 23 22 22 21 21 21 21 18 16 16 15 15 15 13 16 16 17 14 10 11 14 8 9
18 19 19 19 19 21 22 23 23 24 23 23 22 23 23 24 25 27 25 22 20 22 23 21 21 20 21 22 24 20 19 17 16 17 18 17 12 15 15 14 15 12 9
15 14 15 15 17 19 20 20 21 22 21 21 21 21 22 20 20 21 23 21 24 24 23 23 22 22 22 21 21 21 21 22 24 21 20 20 17 15 15 14 16 14 14
10 10 10 10 11 12 14 16 17 17 19 20 19 19 19 18 19 18 17 15 19 23 24 24 23 22 21 20 20 19 19 20 21 24 24 25 21 17 15 13 12 11 5
8 7 6 7 7 8 10 12 12 13 13 13 15 16 16 16 17 15 13 15 18 18 19 23 24 24 24 25 25 23 24 23 21 24 26 25 24 23 18 11 13 12 12
10 8 6 6 7 7 7 7 7 7 8 10 11 11 12 13 13 16 18 16 20 19 19 20 21 25 25 25 25 24 25 26 23 19 22 28 27 23 18 16 13 15 12
14 12 9 8 7 7 8 7 7 6 5 5 6 5 4 5 7 13 16 19 19 17 18 20 19 15 18 22 24 25 27 25 23 21 19 14 12 10 10 14 15 9 10
13 12 10 8 7 7 8 7 6 7 6 4 3 2 1 1 4 5 7 12 13 15 13 16 14 17 18 17 20 26 28 28 17 18 18 17 18 16 15 12 11 10 10
13 12 10 8 7 6 7 7 6 5 5 4 2 1 1 0 1 4 4 3 2 2 3 2 4 7 8 9 10 17 14 12 13 15 15 16 16 13 10 8 8 7 10
13 12 10 9 8 7 5 5 4 5 4 3 2 1 1 0 1 2 2 3 2 2 2 2 5 7 7 7 6 6 7 5 5 8 16 17 18 16 17 17 15 15 16
13 11 9 8 8 7 5 3 3 2 2 2 2 2 2 1 1 1 1 1 1 1 0 2 3 3 7 7 9 10 11 12 10 9 9 14 21 20 17 13 14 8 9
12 11 9 8 9 8 8 7 5 5 4 3 3 2 1 2 3 3 3 4 5 5 4 3 3 3 2 2 4 6 8 12 13 17 16 16 19 14 9 8 7 9 10
11 8 8 8 10 10 9 9 8 4 3 2 2 2 4 4 5 7 9 9 8 7 7 5 3 2 2 2 2 3 4 7 10 12 15 11 9 7 9 8 9 10 12
10 10 10 11 11 10 9 7 7 9 8 6 5 6 7 9 10 8 8 6 6 4 4 5 4 3 1 1 2 3 5 7 7 8 9 9 8 10 10 11 10 11 12
12 14 11 11 11 10 10 8 7 5 7 8 7 7 8 8 8 6 5 1 2 4 4 3 2 3 3 2 1 2 3 5 7 7 8 9 10 11 10 10 9 9 11
15 12 13 12 11 11 10 9 7 5 6 8 8 8 10 9 7 6 6 4 4 2 4 5 4 3 5 4 4 4 5 6 6 7 7 8 9 10 11 11 11 11 10
17 17 14 13 13 11 10 8 6 6 6 5 6 6 9 7 4 5 6 7 5 5 5 4 4 3 4 4 5 6 6 7 7 7 8 8 9 10 10 9 8 9 8
17 17 17 14 12 10 10 8 8 7 6 6 7 5 7 5 4 4 5 5 5 4 3 3 4 4 3 3 4 5 6 6 8 9 9 10 11 10 10 9 10 10 10
17 17 16 13 12 10 9 10 10 9 8 7 7 8 7 6 5 5 5 5 5 5 5 5 5 5 5 5 5 6 7 7 8 9 10 11 11 11 11 11 12 12 12
16 17 16 15 13 13 13 11 9 6 6 8 8 6 6 5 5 5 6 6 7 7 6 6 6 6 6 7 7 7 7 7 8 9 9 9 10 10 11 11 12 11 12
17 15 14 14 14 14 11 11 12 11 12 9 6 5 6 6 5 5 6 7 8 8 7 7 8 7 8 9 9 8 9 12 11 9 11 11 11 11 12 13 13 14 14
15 15 14 13 14 15 12 13 10 11 11 10 8 6 6 6 7 7 7 7 7 8 8 8 8 9 9 10 12 13 15 16 14 18 15 14 15 16 16 16 16 16 17
Wind_Direction
203 209 214 216 220 220 221 224 229 231 231 230 229 227 230 228 226 224 232 244 234 233 240 246 247 258 259 238 248 242 246 255 281 275 295 262 270 270 269 273 261 246 257
209 212 216 216 217 218 221 223 225 228 232 233 233 238 234 237 240 246 246 235 241 241 237 240 245 246 243 260 247 256 261 250 252 265 273 273 258 259 264 264 261 260 262
214 213 216 217 217 219 221 223 225 226 230 233 232 233 235 234 233 240 245 245 242 246 246 244 247 245 242 248 247 262 252 238 249 255 269 259 262 265 261 256 254 256 252
213 216 216 218 222 223 225 226 226 226 229 234 237 238 237 237 238 238 237 238 240 243 249 255 250 243 237 235 241 248 251 263 260 258 264 260 250 255 254 263 255 240 238
209 212 219 220 220 224 226 227 227 226 228 233 238 240 238 239 238 237 242 245 243 243 247 252 251 245 235 232 227 241 253 254 260 249 253 258 262 261 256 253 251 247 228
203 212 217 217 220 222 225 227 229 232 235 235 235 232 234 236 240 239 233 240 248 250 251 246 248 253 254 245 241 242 243 247 254 263 260 263 272 275 262 254 256 248 237
199 208 216 217 221 222 224 225 227 229 231 230 231 231 232 233 238 240 242 244 249 246 248 251 247 248 242 245 250 251 248 248 243 246 251 260 270 261 265 263 261 257 244
179 188 200 209 215 217 218 220 221 222 227 228 224 228 233 238 239 244 254 256 251 248 246 248 247 247 241 239 244 245 250 252 251 245 243 250 256 259 251 254 255 252 207
160 172 187 195 202 208 213 214 218 226 231 231 229 228 229 236 243 245 253 249 252 251 249 248 249 250 248 245 240 240 251 254 256 248 245 244 249 246 237 238 243 226 239
144 148 154 165 181 182 174 169 191 208 211 214 227 232 232 235 246 241 242 247 254 254 254 255 254 253 253 250 250 244 244 250 248 239 242 244 252 251 244 232 247 234 239
147 142 138 141 139 148 147 152 164 170 170 174 170 198 211 232 241 250 250 247 248 263 267 268 268 266 266 268 264 255 250 249 250 242 229 230 216 206 204 209 220 231 249
142 135 130 129 134 137 135 135 139 148 148 151 153 173 202 252 291 299 274 259 251 252 270 276 273 269 268 270 267 258 252 251 243 231 224 198 187 192 200 204 220 230 240
148 145 144 143 143 135 143 147 160 171 182 169 201 227 178 19 7 359 27 46 81 214 241 321 4 359 346 327 319 261 243 230 212 205 180 172 185 186 170 165 155 147 140
158 154 157 165 161 158 160 159 164 162 176 179 172 206 198 234 34 44 43 40 65 59 64 81 50 59 53 48 58 59 80 127 156 182 187 174 153 152 146 143 128 124 109
165 167 168 171 176 151 126 124 120 142 171 185 194 238 217 205 140 297 155 140 137 232 92 32 16 48 29 23 44 61 79 88 95 123 129 134 137 141 140 135 120 149 148
179 181 180 175 180 175 165 131 128 135 140 169 201 172 124 173 185 142 113 98 110 108 63 56 39 47 69 39 50 48 77 108 128 124 141 148 139 134 135 134 152 170 155
202 184 177 182 182 174 175 169 159 138 141 179 184 175 162 153 130 122 114 107 107 116 127 135 147 170 188 136 115 102 85 99 117 133 140 145 134 147 149 158 164 163 150
201 182 178 181 177 180 184 186 170 167 170 151 121 131 136 131 127 125 125 116 132 149 148 153 167 141 130 149 132 111 121 124 133 142 147 151 154 158 164 164 164 156 151
192 189 180 178 185 178 181 182 185 174 167 150 146 150 158 156 157 156 168 188 178 167 155 152 182 171 158 172 160 161 159 157 161 162 165 169 174 177 173 169 165 163 169
189 186 172 171 166 179 178 185 179 187 183 171 181 175 175 172 192 199 209 210 197 173 182 199 188 161 155 158 176 170 178 179 182 182 179 177 181 184 181 179 174 174 187
184 175 182 179 182 181 183 190 192 186 189 194 176 163 173 192 206 209 194 198 196 175 176 174 163 171 176 186 187 191 187 186 189 185 181 185 185 185 186 187 189 199 193
173 173 183 193 187 190 191 197 194 199 188 178 145 147 177 198 204 201 189 184 181 193 188 200 215 209 205 213 206 213 206 200 190 193 191 187 185 187 192 197 203 205 205
169 181 183 190 188 168 182 206 192 189 183 178 158 148 173 195 186 192 191 204 202 214 215 222 234 242 220 222 218 215 216 209 201 196 192 193 196 203 206 210 213 216 218
175 178 181 186 188 189 191 193 190 206 209 188 184 181 178 180 189 197 214 205 209 216 225 233 237 241 233 229 221 223 220 216 209 205 207 210 216 211 229 228 230 232 230
177 187 186 188 177 211 179 201 197 193 195 211 210 217 212 205 204 201 205 213 216 220 223 232 235 232 231 231 233 225 223 221 211 217 213 223 229 230 231 236 236 239 231
184 184 189 188 192 193 190 197 212 213 213 218 223 222 237 235 227 222 220 228 227 226 233 231 235 238 238 238 236 233 234 241 231 218 223 232 233 235 238 237 241 239 236